Powrót do katalogu

HIMAWARI 7

AktywnyPogodaGEO
NORAD 28937·PAYLOAD·🇯🇵 Japan

Wystrzelony Feb 18, 2006 z Tanegashima Space Center

Loading…

TLE

ŚwieżeSource: Space-Track

Epoka: Sep 14, 2026, 11:42 UTC

1 28937U 06004A   26257.48807942 -.00000088  00000-0  00000-0 0  9990
2 28937   6.0043  71.9377 0010233 159.2465 218.5692  0.99074949 75117

Śledź HIMAWARI 7 w czasie rzeczywistym z AllMySat

Download on the App Store